sat.trackr.live / text

‹ back to catalog

EAGLEEYE

NORAD 60508 · 2024-149AS

PAYLOAD ACTIVE UNKNOWN

§ Identity

Operator
Country
POL
Launch date
2024-08-16
Launch site
AFWTR
Launch vehicle
Mass (kg)
RCS (m²)

External: N2YO · Heavens-Above · Gunter

§ Orbital elements

Epoch: 2026-05-25T04:58:47.442720Z

Period
91.92 min
Inclination
97.3724°
Eccentricity
0.0001314
Mean motion
15.66637516 rev/d
Perigee alt
367.6 km
Apogee alt
369.4 km
Semi-major
6,746.7 km
B*
7.4076e-4
RAAN
237.3508°
Arg perigee
324.4235°
Mean anomaly
35.6937°
Rev number
9,933

§ Raw data

EAGLEEYE1 60508U 24149AS  26145.20749355  .00077997  00000+0  74076-3 0  99972 60508  97.3724 237.3508 0001314 324.4235  35.6937 15.66637516 99336

JSON: /api/v1/satellites/60508 · /tle

For live sub-satellite position, see the globe view (requires WebGL).

§ Visibility from observer

Set your observer location to see the next 7 days of passes ≥ 10°. The values pass through the URL so the page stays shareable.

No JS? Fill the form by hand. The geolocation button needs JavaScript.

§ Radio — SatNOGS DB

ModeDescriptionDownlinkUplink
FM Mode 8.200 GHz
FM Mode S - Downlink 2.268 GHz

2 transmitters · refreshed weekly from db.satnogs.org